Theta_e
350 347 349 351 351 353 350 349 350 350 349 349 347 349 349 348 348 346 351 348 349 341 337 335 336 338 340 342 344 345 347 348 349 351 351 339 332 335
352 348 350 351 352 352 352 351 349 348 348 348 347 349 347 346 345 348 351 350 351 339 340 338 337 343 342 339 339 341 344 349 350 351 352 339 332 335
351 351 352 351 351 351 353 353 352 351 348 346 350 349 349 353 351 349 350 349 346 345 344 343 342 343 341 338 341 339 344 349 349 351 352 341 331 336
352 353 353 352 352 351 351 353 351 352 351 351 352 352 354 355 353 353 352 352 353 347 344 341 341 342 342 340 342 341 343 349 347 350 352 346 332 336
351 347 351 352 349 352 351 353 350 353 353 353 354 354 355 355 355 354 355 356 352 347 345 342 340 338 340 339 343 342 342 347 346 350 352 348 333 335
348 348 348 351 349 351 352 352 350 350 352 354 353 353 353 354 354 353 352 352 351 349 346 347 348 349 349 343 343 342 340 344 346 348 350 351 338 334
351 348 348 350 349 350 351 350 352 352 350 350 351 352 352 351 352 352 352 351 348 348 350 349 349 350 348 347 346 344 345 342 344 346 348 350 347 334
356 354 351 350 350 349 350 350 350 351 354 351 351 353 355 355 352 352 352 352 351 348 352 351 351 351 350 349 347 345 345 345 344 345 345 346 350 342
353 354 351 353 352 353 351 350 351 351 350 352 355 356 355 355 355 354 353 354 353 352 351 352 351 352 351 350 348 345 345 347 345 345 346 346 347 348
350 349 350 350 347 347 348 352 353 354 355 354 353 354 354 355 355 354 355 353 353 353 353 355 352 352 353 352 351 347 346 347 348 348 347 346 346 347
339 339 340 338 336 340 343 344 346 351 352 350 349 350 350 350 350 349 352 352 354 352 352 354 353 353 353 352 352 349 347 348 348 349 348 347 345 346
328 329 323 322 322 324 332 332 334 340 340 342 346 349 350 351 349 349 351 352 353 353 353 354 353 353 353 351 353 353 353 351 349 349 349 348 346 342
323 324 323 319 319 320 322 327 329 326 329 334 338 340 341 342 344 348 350 351 351 352 351 351 353 352 352 352 352 352 352 353 351 348 349 348 347 345
318 319 319 318 318 318 320 321 326 329 333 334 335 337 338 339 341 343 345 347 348 350 350 350 351 352 352 352 353 352 352 353 354 352 350 346 347 346
312 314 315 316 316 321 319 319 326 331 333 335 335 334 334 333 336 337 339 343 346 347 347 349 350 350 350 352 352 352 353 353 353 353 352 349 344 342
306 309 311 314 317 320 322 323 325 328 328 328 327 326 326 326 326 327 328 330 334 338 341 344 348 349 349 349 351 352 352 354 354 354 354 351 350 346
303 311 312 314 315 317 318 321 324 325 323 322 322 322 322 322 322 321 321 322 325 329 332 336 342 343 345 349 351 350 350 352 353 354 355 354 351 351
307 308 309 311 314 315 316 317 318 319 319 318 318 319 319 320 320 319 320 320 321 321 324 327 325 331 339 345 347 349 351 351 352 352 354 353 352 351
303 304 305 306 308 310 312 313 312 313 314 315 315 315 315 316 315 317 318 318 319 320 321 319 320 326 333 338 340 346 347 349 350 350 351 352 353 352
300 300 300 300 301 302 304 305 307 307 309 309 309 310 311 311 312 311 313 314 315 316 316 318 319 319 323 323 324 327 338 344 347 349 349 349 350 351
297 297 297 298 298 299 300 300 301 302 304 306 307 305 306 306 306 306 306 307 308 311 313 314 316 316 317 319 322 326 330 340 343 345 346 348 348 349
294 294 295 295 296 297 297 298 298 298 299 300 302 304 303 302 302 302 303 303 304 305 306 309 310 313 315 317 319 321 323 327 336 341 341 342 346 349
294 293 293 293 294 294 294 294 294 296 296 298 299 301 300 300 299 299 299 299 300 302 303 304 307 309 312 314 316 317 320 324 328 333 338 339 343 343
Wind_Speed
4 3 3 3 3 3 3 3 4 4 3 2 4 6 9 11 13 15 13 15 15 18 19 19 17 19 20 19 18 18 15 13 10 15 21 25 21 17
4 6 5 4 5 6 5 5 5 5 5 5 8 10 13 14 15 16 14 16 16 17 19 17 13 19 23 20 16 17 17 13 9 13 20 24 19 17
7 7 7 7 7 6 6 7 7 7 11 12 10 11 13 12 15 14 13 13 15 17 18 15 14 20 23 22 17 14 17 12 10 11 17 22 18 14
7 7 6 6 8 8 8 8 9 8 9 12 12 13 13 13 14 14 13 14 15 16 17 18 17 21 22 23 19 12 13 11 10 9 14 19 17 12
8 9 7 6 8 7 6 7 8 7 8 10 14 13 14 14 14 15 15 14 14 18 18 19 22 21 22 19 18 12 11 9 9 9 12 16 17 11
10 9 8 8 10 9 8 9 11 12 11 12 13 14 14 14 12 14 17 15 18 19 17 18 23 24 23 19 14 14 11 10 9 8 10 13 15 11
9 11 10 10 13 10 11 11 10 12 13 15 15 15 15 14 14 15 17 19 19 16 17 22 21 20 17 14 13 16 13 10 8 9 10 11 12 11
9 9 10 12 11 11 12 12 13 15 14 14 16 17 17 15 15 16 18 19 19 18 22 23 20 18 14 11 15 13 12 11 6 8 11 11 10 11
7 9 10 8 10 10 12 16 16 17 17 15 15 17 17 17 17 19 19 19 20 24 20 22 18 16 14 13 17 10 10 13 9 12 12 12 11 9
3 4 5 2 8 12 14 13 14 14 14 14 15 17 16 15 15 17 18 19 20 19 15 15 16 19 16 17 17 10 10 13 11 16 16 15 12 10
7 7 6 9 13 13 13 13 14 13 14 16 17 18 21 21 19 17 19 20 21 20 18 19 16 19 19 18 12 12 10 17 17 18 16 16 14 10
8 8 11 12 12 13 12 13 13 13 15 18 17 17 16 17 19 17 18 20 21 19 11 12 18 19 15 15 12 15 17 18 16 18 17 17 16 11
9 9 10 13 13 13 14 10 11 18 18 14 14 14 14 13 12 12 12 14 18 22 20 15 17 19 17 26 22 19 20 19 17 17 18 18 18 16
10 10 11 13 14 15 14 14 13 12 11 11 12 12 12 14 15 16 16 17 18 22 23 21 20 20 22 24 27 24 19 19 17 17 15 18 17 19
10 11 13 15 17 13 15 15 11 10 10 9 10 11 12 15 17 17 16 16 18 19 19 17 19 20 21 21 24 25 23 20 18 17 14 12 13 15
17 16 16 14 13 12 14 13 12 10 9 10 11 14 16 16 15 15 18 19 20 20 16 17 17 20 21 22 22 23 20 17 17 19 15 14 15 16
14 10 11 12 13 12 13 13 12 10 11 13 15 15 16 17 17 17 17 19 18 20 21 18 19 24 26 25 24 23 24 24 23 21 18 19 18 18
9 11 11 11 11 12 12 12 13 14 14 16 17 17 18 18 19 20 18 17 20 21 22 21 25 28 26 24 21 24 21 21 22 21 19 20 21 18
13 13 12 12 12 13 14 14 14 15 17 17 17 19 19 20 22 21 22 22 22 22 23 24 22 19 14 11 20 16 23 23 23 22 21 20 22 22
13 12 13 14 15 16 16 17 18 18 16 16 17 19 19 20 23 24 22 24 26 27 27 25 22 19 17 16 24 41 27 27 25 26 26 26 27 27
11 11 11 13 14 15 16 17 19 21 22 23 22 19 17 19 20 22 24 25 27 27 28 28 26 28 28 25 25 28 29 26 26 27 30 26 27 27
12 13 14 15 16 16 18 19 20 21 23 22 22 21 23 24 24 24 24 25 26 27 29 32 33 30 28 26 27 29 32 30 27 29 32 32 31 19
11 11 13 15 16 17 19 20 22 23 24 24 23 25 27 28 27 25 27 27 29 30 29 31 30 30 31 30 31 32 32 32 29 30 31 30 31 37
Wind_Direction
256 270 283 291 286 305 323 325 334 318 314 289 323 327 337 335 329 333 325 328 334 345 345 347 352 356 358 354 351 351 342 344 346 342 354 0 359 2
235 248 250 266 283 276 287 292 290 296 296 299 304 309 321 327 322 323 318 325 323 338 342 345 348 352 351 344 336 340 347 343 358 351 357 4 5 5
235 236 242 254 259 266 272 275 283 293 290 302 305 317 329 333 338 339 334 331 327 335 345 350 347 349 351 351 334 331 343 349 1 1 2 4 13 11
240 234 245 251 255 254 255 264 276 283 288 302 314 317 312 320 328 335 335 337 333 334 347 348 343 345 348 346 339 327 342 351 4 10 5 7 15 19
240 244 238 249 260 259 262 269 261 267 271 281 299 304 309 319 324 328 327 327 333 331 332 336 335 339 345 346 348 336 340 349 359 12 8 10 13 28
264 257 260 264 261 255 267 271 279 280 280 278 285 295 300 310 316 319 326 329 326 327 326 333 335 338 343 343 356 353 337 345 345 1 7 10 14 19
264 274 272 263 269 274 270 274 270 276 280 284 288 294 299 311 318 318 315 322 323 323 322 330 327 329 335 340 346 347 349 328 336 347 356 3 12 13
275 282 280 283 293 287 287 288 280 270 269 280 292 291 296 303 309 311 314 318 316 320 320 318 325 324 328 334 336 340 8 356 346 355 346 349 358 6
285 293 292 302 310 298 282 280 283 281 279 277 272 279 293 298 302 301 304 302 299 303 308 307 317 316 321 321 331 325 323 360 340 343 341 333 341 345
19 354 359 13 313 313 311 300 290 286 286 280 276 280 281 285 287 292 294 294 294 297 295 290 311 306 309 306 311 307 306 323 325 326 321 322 318 325
58 43 31 10 357 345 344 331 319 306 297 305 289 281 284 286 288 290 289 295 295 296 295 284 298 307 307 298 292 291 277 302 307 314 308 305 302 298
52 45 28 21 10 357 345 338 324 320 313 309 308 305 301 296 296 285 279 281 289 297 302 283 298 307 302 292 288 293 295 298 294 301 298 294 288 269
22 21 17 15 10 7 1 346 321 317 317 313 311 315 316 315 312 304 294 281 285 285 290 301 290 296 280 286 289 290 296 291 294 294 290 285 275 265
13 4 9 8 6 0 359 350 344 338 328 324 322 328 329 328 324 316 307 296 286 281 290 291 282 288 288 284 288 297 291 289 288 287 281 282 278 262
353 351 350 358 358 348 338 345 357 351 344 345 354 351 341 331 323 326 324 319 305 299 297 292 283 288 288 278 283 290 297 290 285 281 278 261 261 266
340 339 341 344 346 346 342 337 338 344 346 339 334 325 324 326 327 329 327 324 317 310 308 306 307 290 286 286 286 285 286 281 284 284 279 272 264 252
352 355 354 355 351 351 345 335 330 329 330 328 326 326 327 327 327 330 329 326 318 318 318 320 319 316 302 288 286 287 285 284 283 282 278 274 270 261
15 13 5 359 355 351 352 349 334 325 323 325 322 320 322 321 321 322 321 320 318 319 317 318 319 320 323 304 285 283 289 289 291 289 276 268 273 270
29 17 6 359 349 341 339 334 328 323 322 320 319 317 316 315 317 315 315 314 311 311 311 314 319 321 312 315 318 305 296 295 296 294 280 273 275 277
19 6 358 352 346 340 332 325 316 315 317 317 317 309 310 309 310 311 311 309 309 309 306 305 306 313 311 303 295 296 300 280 283 284 287 283 277 278
8 359 352 343 338 333 326 322 319 315 311 301 299 298 304 310 311 308 305 304 304 300 299 299 301 305 300 296 291 289 290 287 283 280 283 281 282 281
359 352 346 340 333 328 324 320 316 313 309 310 310 301 297 299 297 296 298 301 298 293 292 293 298 298 295 290 289 291 293 293 287 282 278 277 272 277
346 339 335 330 326 325 325 322 319 314 311 310 310 301 295 293 295 294 296 295 292 292 293 293 294 293 289 288 288 288 288 291 290 289 283 278 276 276